Zurück zum Katalog

KUIPER-00033

AktivKommunikationLEO
NORAD 63746·PAYLOAD·🇺🇸 United States

Gestartet Apr 28, 2025 von Cape Canaveral Space Force Station

Loading…

Nächste Überflüge (nächste 24 Stunden)

TLE

AktuellSource: CelesTrak SupGP

Epoche: Sep 14, 2026, 19:10 UTC

1 63746C 25088Y   26257.79885417  .00007320  00000+0  95819-3 0  2573
2 63746  51.9018   9.3449 0000322 101.2651 184.0485 14.79926768    14

Verfolge KUIPER-00033 in Echtzeit mit AllMySat

Download on the App Store